QPF
0.00 0.00 0.00 0.00 0.00 0.00 0.00 0.00 0.00 0.00 0.00 0.00 0.00 0.00 0.00 0.00 0.00 0.00 0.00 0.00 0.00 0.00 0.00 0.00 0.00 0.00 0.00 0.00 0.00 0.00 0.00 0.00 0.00 0.00 0.00 0.00 0.00 0.00 0.00 0.00 0.00 0.00 0.00 0.00
0.00 0.00 0.00 0.00 0.00 0.00 0.00 0.00 0.00 0.00 0.00 0.00 0.00 0.00 0.00 0.00 0.00 0.00 0.00 0.00 0.00 0.00 0.00 0.00 0.00 0.00 0.00 0.00 0.00 0.00 0.00 0.00 0.00 0.00 0.00 0.00 0.00 0.00 0.00 0.00 0.00 0.00 0.00 0.00
0.00 0.00 0.00 0.00 0.00 0.00 0.00 0.00 0.00 0.00 0.00 0.00 0.00 0.00 0.00 0.00 0.00 0.00 0.00 0.00 0.00 0.00 0.00 0.00 0.00 0.00 0.00 0.00 0.00 0.00 0.00 0.00 0.00 0.00 0.00 0.00 0.00 0.00 0.00 0.00 0.00 0.00 0.00 0.00
0.00 0.00 0.00 0.00 0.00 0.00 0.00 0.00 0.00 0.00 0.00 0.00 0.00 0.00 0.00 0.00 0.00 0.00 0.00 0.00 0.00 0.00 0.00 0.00 0.00 0.00 0.00 0.00 0.00 0.00 0.00 0.00 0.00 0.00 0.00 0.00 0.00 0.00 0.00 0.00 0.00 0.00 0.00 0.00
0.00 0.00 0.00 0.00 0.00 0.00 0.00 0.00 0.00 0.00 0.00 0.00 0.00 0.00 0.00 0.00 0.00 0.00 0.00 0.00 0.00 0.00 0.00 0.00 0.00 0.00 0.00 0.00 0.00 0.00 0.00 0.00 0.00 0.00 0.00 0.00 0.00 0.00 0.00 0.00 0.00 0.00 0.00 0.00
0.00 0.00 0.00 0.00 0.00 0.00 0.00 0.00 0.00 0.00 0.00 0.00 0.00 0.00 0.00 0.00 0.00 0.00 0.00 0.00 0.00 0.00 0.00 0.00 0.00 0.00 0.00 0.00 0.00 0.00 0.00 0.00 0.00 0.00 0.00 0.00 0.00 0.00 0.00 0.00 0.00 0.00 0.00 0.00
0.00 0.00 0.00 0.00 0.00 0.00 0.00 0.00 0.01 0.01 0.00 0.00 0.00 0.00 0.00 0.00 0.00 0.00 0.00 0.00 0.00 0.00 0.00 0.00 0.00 0.00 0.00 0.00 0.00 0.00 0.00 0.00 0.00 0.00 0.00 0.00 0.00 0.00 0.00 0.00 0.00 0.00 0.00 0.00
0.00 0.00 0.00 0.00 0.00 0.00 0.00 0.00 0.01 0.03 0.01 0.00 0.00 0.00 0.00 0.00 0.00 0.00 0.00 0.00 0.00 0.00 0.00 0.00 0.00 0.00 0.00 0.00 0.00 0.00 0.00 0.00 0.00 0.00 0.00 0.00 0.00 0.00 0.00 0.00 0.00 0.00 0.00 0.00
0.02 0.01 0.00 0.00 0.00 0.00 0.00 0.00 0.00 0.03 0.05 0.02 0.00 0.00 0.00 0.00 0.00 0.00 0.00 0.00 0.00 0.00 0.00 0.00 0.00 0.00 0.00 0.00 0.00 0.00 0.00 0.00 0.00 0.00 0.00 0.00 0.00 0.00 0.00 0.00 0.00 0.00 0.00 0.00
0.02 0.03 0.01 0.00 0.00 0.00 0.00 0.00 0.01 0.06 0.13 0.09 0.02 0.00 0.00 0.00 0.00 0.00 0.00 0.00 0.00 0.00 0.00 0.00 0.00 0.00 0.00 0.00 0.00 0.00 0.00 0.00 0.00 0.00 0.00 0.00 0.00 0.00 0.00 0.00 0.00 0.00 0.00 0.00
0.03 0.10 0.07 0.02 0.00 0.00 0.00 0.00 0.01 0.05 0.11 0.12 0.06 0.01 0.00 0.00 0.00 0.00 0.00 0.00 0.00 0.00 0.00 0.00 0.00 0.00 0.00 0.00 0.00 0.00 0.00 0.00 0.00 0.00 0.00 0.00 0.00 0.00 0.00 0.00 0.00 0.00 0.00 0.00
0.05 0.11 0.10 0.03 0.00 0.00 0.00 0.00 0.00 0.03 0.05 0.05 0.07 0.04 0.00 0.00 0.00 0.00 0.00 0.00 0.00 0.00 0.00 0.00 0.00 0.00 0.00 0.00 0.00 0.00 0.00 0.00 0.00 0.00 0.00 0.00 0.00 0.00 0.00 0.00 0.00 0.00 0.00 0.00
0.06 0.11 0.17 0.09 0.02 0.02 0.02 0.02 0.03 0.09 0.17 0.16 0.17 0.09 0.01 0.00 0.00 0.00 0.00 0.00 0.00 0.00 0.00 0.00 0.00 0.00 0.00 0.00 0.00 0.00 0.00 0.00 0.00 0.00 0.00 0.00 0.00 0.00 0.00 0.00 0.00 0.00 0.00 0.00
0.12 0.16 0.23 0.19 0.08 0.09 0.13 0.12 0.11 0.19 0.27 0.20 0.12 0.06 0.02 0.01 0.00 0.00 0.00 0.00 0.00 0.00 0.00 0.00 0.00 0.00 0.00 0.00 0.00 0.00 0.00 0.00 0.00 0.00 0.00 0.00 0.00 0.00 0.00 0.00 0.00 0.00 0.00 0.00
0.05 0.08 0.07 0.05 0.03 0.05 0.08 0.07 0.05 0.07 0.09 0.12 0.06 0.02 0.01 0.00 0.00 0.00 0.00 0.00 0.00 0.00 0.00 0.00 0.00 0.00 0.00 0.00 0.00 0.00 0.00 0.00 0.00 0.00 0.00 0.00 0.00 0.00 0.00 0.00 0.00 0.00 0.00 0.00
0.02 0.05 0.04 0.02 0.00 0.01 0.01 0.01 0.00 0.00 0.00 0.00 0.00 0.00 0.00 0.00 0.00 0.00 0.00 0.00 0.00 0.00 0.00 0.00 0.00 0.00 0.00 0.00 0.00 0.00 0.00 0.00 0.00 0.00 0.00 0.00 0.00 0.00 0.00 0.00 0.00 0.00 0.00 0.00
0.02 0.04 0.06 0.04 0.00 0.00 0.01 0.00 0.00 0.00 0.00 0.00 0.00 0.00 0.00 0.00 0.00 0.00 0.00 0.00 0.00 0.00 0.00 0.00 0.00 0.00 0.00 0.00 0.00 0.00 0.00 0.00 0.00 0.00 0.00 0.00 0.00 0.00 0.00 0.00 0.00 0.00 0.00 0.00
0.01 0.01 0.03 0.03 0.01 0.01 0.00 0.00 0.00 0.00 0.00 0.00 0.00 0.00 0.00 0.00 0.00 0.00 0.00 0.00 0.00 0.00 0.00 0.00 0.00 0.00 0.00 0.00 0.00 0.00 0.00 0.00 0.00 0.00 0.00 0.00 0.00 0.00 0.00 0.00 0.00 0.00 0.00 0.00
0.00 0.00 0.01 0.02 0.01 0.00 0.00 0.00 0.00 0.00 0.00 0.00 0.00 0.00 0.00 0.00 0.00 0.00 0.00 0.00 0.00 0.00 0.00 0.00 0.00 0.00 0.00 0.00 0.00 0.00 0.00 0.00 0.00 0.00 0.00 0.00 0.00 0.00 0.00 0.00 0.00 0.00 0.00 0.00
0.00 0.01 0.03 0.03 0.02 0.00 0.00 0.00 0.00 0.00 0.00 0.00 0.00 0.00 0.00 0.00 0.00 0.00 0.00 0.00 0.00 0.00 0.00 0.00 0.00 0.00 0.00 0.00 0.00 0.00 0.00 0.00 0.00 0.00 0.00 0.00 0.00 0.00 0.00 0.00 0.00 0.00 0.00 0.00
0.00 0.01 0.03 0.02 0.02 0.01 0.00 0.00 0.00 0.00 0.00 0.00 0.00 0.00 0.00 0.00 0.00 0.00 0.00 0.00 0.00 0.00 0.00 0.00 0.00 0.00 0.00 0.00 0.00 0.00 0.00 0.00 0.00 0.00 0.00 0.00 0.00 0.00 0.00 0.00 0.00 0.00 0.00 0.00
0.00 0.00 0.00 0.00 0.01 0.01 0.00 0.00 0.00 0.00 0.00 0.00 0.00 0.00 0.00 0.00 0.00 0.00 0.00 0.00 0.00 0.00 0.00 0.00 0.00 0.00 0.00 0.00 0.00 0.00 0.00 0.00 0.00 0.00 0.00 0.00 0.00 0.00 0.00 0.00 0.00 0.01 0.01 0.01
0.00 0.00 0.00 0.00 0.00 0.00 0.00 0.00 0.00 0.00 0.00 0.00 0.00 0.00 0.00 0.00 0.00 0.00 0.00 0.00 0.00 0.00 0.00 0.00 0.00 0.00 0.00 0.00 0.00 0.00 0.00 0.00 0.00 0.00 0.00 0.00 0.00 0.00 0.00 0.00 0.00 0.01 0.01 0.02
0.00 0.00 0.00 0.00 0.00 0.00 0.00 0.00 0.00 0.00 0.00 0.00 0.00 0.00 0.00 0.00 0.00 0.00 0.00 0.00 0.00 0.00 0.00 0.00 0.00 0.00 0.00 0.00 0.00 0.00 0.00 0.00 0.00 0.00 0.00 0.00 0.00 0.00 0.00 0.00 0.00 0.01 0.01 0.02
0.00 0.00 0.00 0.00 0.00 0.00 0.00 0.00 0.00 0.00 0.00 0.00 0.00 0.00 0.00 0.00 0.00 0.00 0.00 0.00 0.00 0.00 0.00 0.00 0.00 0.00 0.00 0.00 0.00 0.00 0.00 0.00 0.00 0.00 0.00 0.00 0.00 0.00 0.00 0.00 0.00 0.01 0.01 0.01
0.00 0.00 0.00 0.00 0.00 0.00 0.00 0.00 0.00 0.00 0.00 0.00 0.00 0.00 0.00 0.00 0.00 0.00 0.00 0.00 0.00 0.00 0.00 0.00 0.00 0.00 0.00 0.00 0.00 0.00 0.00 0.00 0.00 0.00 0.00 0.00 0.00 0.00 0.00 0.00 0.00 0.00 0.01 0.01
MSLP
1018.71 1018.58 1018.35 1018.09 1017.85 1017.66 1017.53 1017.45 1017.36 1017.21 1016.91 1016.43 1015.75 1014.87 1013.85 1012.76 1011.70 1010.74 1009.95 1009.37 1008.98 1008.77 1008.68 1008.67 1008.69 1008.71 1008.73 1008.76 1008.82 1008.94 1009.15 1009.46 1009.85 1010.32 1010.84 1011.39 1011.94 1012.49 1013.01 1013.53 1014.03 1014.54 1015.07 1015.61
1018.67 1018.43 1018.13 1017.84 1017.60 1017.44 1017.36 1017.32 1017.26 1017.10 1016.77 1016.22 1015.45 1014.48 1013.39 1012.27 1011.22 1010.32 1009.63 1009.17 1008.92 1008.84 1008.86 1008.91 1008.95 1008.95 1008.92 1008.87 1008.84 1008.87 1009.00 1009.25 1009.60 1010.05 1010.57 1011.12 1011.68 1012.23 1012.75 1013.26 1013.74 1014.22 1014.71 1015.20
1018.48 1018.18 1017.86 1017.57 1017.37 1017.28 1017.25 1017.26 1017.20 1017.01 1016.61 1015.97 1015.11 1014.07 1012.94 1011.83 1010.85 1010.07 1009.54 1009.26 1009.20 1009.28 1009.44 1009.58 1009.65 1009.64 1009.55 1009.42 1009.29 1009.22 1009.25 1009.40 1009.68 1010.07 1010.54 1011.06 1011.59 1012.11 1012.61 1013.08 1013.53 1013.97 1014.41 1014.86
1018.18 1017.86 1017.57 1017.34 1017.21 1017.19 1017.23 1017.25 1017.18 1016.93 1016.45 1015.72 1014.77 1013.68 1012.55 1011.50 1010.63 1010.02 1009.70 1009.65 1009.80 1010.08 1010.37 1010.61 1010.73 1010.71 1010.57 1010.35 1010.12 1009.94 1009.85 1009.90 1010.08 1010.37 1010.76 1011.19 1011.65 1012.10 1012.53 1012.94 1013.34 1013.73 1014.13 1014.53
1017.81 1017.53 1017.30 1017.16 1017.13 1017.19 1017.27 1017.31 1017.20 1016.88 1016.31 1015.49 1014.47 1013.36 1012.26 1011.30 1010.60 1010.19 1010.10 1010.29 1010.66 1011.12 1011.56 1011.88 1012.03 1012.00 1011.82 1011.53 1011.20 1010.91 1010.72 1010.65 1010.71 1010.88 1011.14 1011.46 1011.80 1012.15 1012.49 1012.82 1013.15 1013.49 1013.83 1014.20
1017.42 1017.21 1017.07 1017.04 1017.11 1017.24 1017.36 1017.39 1017.23 1016.83 1016.17 1015.27 1014.22 1013.12 1012.09 1011.27 1010.75 1010.57 1010.71 1011.11 1011.68 1012.30 1012.85 1013.23 1013.40 1013.36 1013.13 1012.78 1012.38 1012.00 1011.70 1011.52 1011.46 1011.50 1011.63 1011.80 1012.01 1012.22 1012.44 1012.67 1012.92 1013.19 1013.49 1013.82
1017.06 1016.93 1016.90 1016.97 1017.13 1017.30 1017.43 1017.42 1017.20 1016.72 1015.99 1015.05 1014.00 1012.96 1012.05 1011.40 1011.08 1011.11 1011.46 1012.05 1012.77 1013.50 1014.11 1014.52 1014.68 1014.61 1014.34 1013.94 1013.48 1013.04 1012.67 1012.40 1012.23 1012.15 1012.14 1012.16 1012.22 1012.29 1012.38 1012.49 1012.65 1012.85 1013.10 1013.38
1016.74 1016.70 1016.76 1016.91 1017.11 1017.30 1017.40 1017.34 1017.04 1016.50 1015.73 1014.79 1013.80 1012.86 1012.11 1011.66 1011.54 1011.78 1012.30 1013.03 1013.84 1014.61 1015.23 1015.61 1015.74 1015.63 1015.32 1014.88 1014.40 1013.92 1013.51 1013.19 1012.94 1012.76 1012.63 1012.52 1012.43 1012.36 1012.31 1012.30 1012.36 1012.47 1012.66 1012.90
1016.49 1016.52 1016.63 1016.81 1017.00 1017.16 1017.20 1017.07 1016.71 1016.12 1015.35 1014.47 1013.58 1012.81 1012.26 1012.02 1012.11 1012.52 1013.18 1013.99 1014.83 1015.58 1016.15 1016.46 1016.53 1016.36 1016.02 1015.57 1015.08 1014.61 1014.20 1013.86 1013.57 1013.33 1013.10 1012.88 1012.66 1012.46 1012.28 1012.15 1012.09 1012.11 1012.21 1012.38
1016.33 1016.38 1016.49 1016.64 1016.78 1016.86 1016.82 1016.60 1016.18 1015.58 1014.86 1014.08 1013.36 1012.79 1012.47 1012.46 1012.75 1013.31 1014.06 1014.90 1015.71 1016.39 1016.85 1017.07 1017.04 1016.82 1016.45 1016.00 1015.54 1015.11 1014.74 1014.42 1014.13 1013.86 1013.58 1013.28 1012.96 1012.64 1012.34 1012.09 1011.91 1011.83 1011.83 1011.91
1016.26 1016.28 1016.34 1016.41 1016.46 1016.42 1016.27 1015.97 1015.52 1014.94 1014.30 1013.67 1013.15 1012.83 1012.75 1012.96 1013.44 1014.12 1014.92 1015.74 1016.47 1017.03 1017.36 1017.46 1017.34 1017.06 1016.67 1016.25 1015.84 1015.48 1015.18 1014.91 1014.66 1014.40 1014.09 1013.74 1013.34 1012.93 1012.53 1012.16 1011.87 1011.66 1011.55 1011.51
1016.31 1016.27 1016.23 1016.19 1016.10 1015.94 1015.68 1015.30 1014.83 1014.30 1013.78 1013.33 1013.03 1012.95 1013.11 1013.53 1014.15 1014.91 1015.72 1016.48 1017.10 1017.52 1017.72 1017.69 1017.49 1017.16 1016.77 1016.39 1016.06 1015.78 1015.57 1015.38 1015.18 1014.95 1014.64 1014.26 1013.82 1013.33 1012.84 1012.38 1011.97 1011.64 1011.40 1011.24
1016.54 1016.40 1016.24 1016.06 1015.83 1015.54 1015.17 1014.74 1014.27 1013.80 1013.41 1013.14 1013.06 1013.19 1013.56 1014.14 1014.86 1015.65 1016.43 1017.10 1017.59 1017.88 1017.94 1017.80 1017.52 1017.17 1016.81 1016.49 1016.23 1016.06 1015.93 1015.82 1015.69 1015.49 1015.20 1014.81 1014.34 1013.80 1013.24 1012.69 1012.18 1011.74 1011.37 1011.08
1016.97 1016.72 1016.43 1016.11 1015.75 1015.34 1014.89 1014.42 1013.97 1013.58 1013.31 1013.20 1013.29 1013.60 1014.10 1014.78 1015.54 1016.31 1017.01 1017.56 1017.92 1018.06 1018.00 1017.78 1017.46 1017.11 1016.79 1016.53 1016.36 1016.28 1016.24 1016.20 1016.12 1015.96 1015.69 1015.30 1014.81 1014.25 1013.64 1013.03 1012.45 1011.91 1011.43 1011.01
1017.63 1017.27 1016.87 1016.44 1015.96 1015.46 1014.95 1014.46 1014.03 1013.71 1013.53 1013.54 1013.74 1014.14 1014.71 1015.40 1016.13 1016.82 1017.40 1017.81 1018.03 1018.05 1017.89 1017.62 1017.28 1016.95 1016.68 1016.50 1016.41 1016.40 1016.43 1016.45 1016.41 1016.28 1016.02 1015.65 1015.16 1014.58 1013.96 1013.31 1012.67 1012.06 1011.49 1010.96
1018.51 1018.06 1017.56 1017.03 1016.48 1015.92 1015.37 1014.87 1014.47 1014.19 1014.07 1014.13 1014.38 1014.79 1015.34 1015.96 1016.58 1017.13 1017.55 1017.81 1017.89 1017.80 1017.58 1017.27 1016.95 1016.66 1016.45 1016.34 1016.32 1016.37 1016.45 1016.50 1016.49 1016.37 1016.13 1015.77 1015.29 1014.73 1014.10 1013.45 1012.79 1012.13 1011.50 1010.88
1019.52 1019.00 1018.44 1017.85 1017.24 1016.64 1016.07 1015.58 1015.19 1014.93 1014.82 1014.88 1015.10 1015.45 1015.89 1016.37 1016.83 1017.20 1017.45 1017.55 1017.50 1017.32 1017.06 1016.75 1016.46 1016.23 1016.08 1016.04 1016.07 1016.16 1016.26 1016.33 1016.32 1016.21 1015.98 1015.63 1015.17 1014.63 1014.03 1013.40 1012.74 1012.06 1011.39 1010.71
1020.54 1019.97 1019.36 1018.73 1018.09 1017.47 1016.90 1016.41 1016.02 1015.76 1015.63 1015.64 1015.78 1016.01 1016.30 1016.60 1016.85 1017.03 1017.10 1017.06 1016.90 1016.66 1016.38 1016.09 1015.85 1015.69 1015.61 1015.62 1015.69 1015.80 1015.91 1015.97 1015.94 1015.82 1015.59 1015.26 1014.83 1014.33 1013.76 1013.15 1012.51 1011.83 1011.13 1010.41
1021.39 1020.79 1020.14 1019.47 1018.82 1018.19 1017.63 1017.14 1016.75 1016.47 1016.31 1016.25 1016.28 1016.37 1016.49 1016.60 1016.67 1016.67 1016.58 1016.42 1016.19 1015.92 1015.65 1015.42 1015.24 1015.14 1015.12 1015.17 1015.27 1015.38 1015.47 1015.50 1015.45 1015.31 1015.08 1014.75 1014.35 1013.88 1013.35 1012.77 1012.14 1011.47 1010.74 1009.98
1021.90 1021.26 1020.58 1019.90 1019.23 1018.61 1018.05 1017.57 1017.18 1016.90 1016.70 1016.57 1016.51 1016.48 1016.46 1016.42 1016.34 1016.20 1016.02 1015.78 1015.53 1015.27 1015.04 1014.86 1014.75 1014.71 1014.74 1014.82 1014.92 1015.02 1015.07 1015.06 1014.97 1014.80 1014.55 1014.22 1013.83 1013.38 1012.87 1012.31 1011.69 1011.00 1010.25 1009.43
1021.93 1021.25 1020.54 1019.83 1019.16 1018.55 1018.01 1017.56 1017.20 1016.92 1016.71 1016.56 1016.45 1016.36 1016.26 1016.13 1015.97 1015.77 1015.54 1015.30 1015.06 1014.85 1014.68 1014.57 1014.53 1014.54 1014.61 1014.69 1014.78 1014.83 1014.83 1014.76 1014.62 1014.40 1014.11 1013.76 1013.36 1012.91 1012.40 1011.83 1011.19 1010.47 1009.67 1008.79
1021.38 1020.67 1019.94 1019.23 1018.57 1017.98 1017.48 1017.08 1016.77 1016.54 1016.38 1016.26 1016.17 1016.08 1015.97 1015.85 1015.69 1015.50 1015.31 1015.11 1014.93 1014.79 1014.69 1014.66 1014.67 1014.72 1014.79 1014.86 1014.90 1014.89 1014.82 1014.67 1014.45 1014.16 1013.82 1013.42 1012.98 1012.50 1011.95 1011.35 1010.66 1009.89 1009.02 1008.07
1020.28 1019.55 1018.82 1018.12 1017.50 1016.97 1016.54 1016.22 1016.01 1015.88 1015.81 1015.79 1015.78 1015.78 1015.75 1015.70 1015.62 1015.52 1015.41 1015.30 1015.21 1015.15 1015.13 1015.14 1015.18 1015.24 1015.29 1015.30 1015.27 1015.18 1015.01 1014.77 1014.45 1014.08 1013.65 1013.18 1012.67 1012.11 1011.50 1010.83 1010.07 1009.22 1008.27 1007.23
1018.73 1018.01 1017.31 1016.67 1016.12 1015.69 1015.37 1015.18 1015.10 1015.12 1015.20 1015.32 1015.47 1015.61 1015.73 1015.82 1015.87 1015.90 1015.90 1015.90 1015.90 1015.91 1015.94 1015.97 1016.01 1016.03 1016.01 1015.95 1015.82 1015.61 1015.33 1014.96 1014.53 1014.04 1013.50 1012.93 1012.32 1011.67 1010.97 1010.20 1009.34 1008.40 1007.37 1006.26
1016.91 1016.26 1015.65 1015.11 1014.69 1014.39 1014.23 1014.20 1014.30 1014.49 1014.76 1015.07 1015.40 1015.72 1016.01 1016.26 1016.47 1016.63 1016.75 1016.84 1016.91 1016.96 1016.99 1017.00 1016.98 1016.92 1016.81 1016.63 1016.37 1016.03 1015.60 1015.10 1014.54 1013.92 1013.26 1012.56 1011.83 1011.06 1010.25 1009.37 1008.42 1007.39 1006.28 1005.10
1015.10 1014.57 1014.10 1013.73 1013.48 1013.37 1013.39 1013.56 1013.85 1014.23 1014.69 1015.19 1015.70 1016.20 1016.66 1017.06 1017.40 1017.66 1017.86 1018.00 1018.08 1018.12 1018.10 1018.03 1017.91 1017.73 1017.48 1017.16 1016.75 1016.26 1015.68 1015.03 1014.33 1013.57 1012.77 1011.94 1011.09 1010.19 1009.26 1008.27 1007.23 1006.12 1004.96 1003.75
Thickness
5651 5649 5653 5664 5663 5665 5659 5652 5653 5662 5670 5654 5658 5664 5671 5684 5692 5701 5711 5718 5722 5719 5714 5709 5707 5707 5708 5708 5707 5706 5703 5698 5692 5688 5683 5680 5679 5675 5670 5666 5662 5657 5653 5648
5636 5639 5656 5656 5644 5639 5637 5635 5644 5654 5657 5640 5648 5656 5665 5675 5685 5697 5705 5711 5708 5703 5701 5697 5695 5694 5694 5694 5695 5695 5694 5690 5685 5681 5676 5672 5670 5668 5664 5658 5654 5649 5644 5639
5637 5642 5639 5631 5627 5625 5632 5630 5641 5641 5642 5634 5629 5646 5653 5667 5678 5687 5693 5692 5689 5686 5684 5682 5679 5677 5677 5678 5679 5680 5682 5681 5677 5671 5666 5661 5657 5656 5654 5650 5645 5639 5633 5629
5622 5626 5618 5617 5622 5622 5626 5635 5627 5619 5612 5623 5617 5630 5643 5656 5668 5679 5682 5677 5672 5668 5664 5661 5660 5658 5658 5658 5661 5664 5666 5666 5664 5660 5656 5652 5649 5647 5645 5640 5635 5629 5623 5619
5615 5607 5605 5607 5615 5611 5617 5611 5607 5605 5603 5606 5604 5607 5645 5638 5644 5658 5657 5651 5648 5644 5640 5637 5635 5635 5635 5638 5642 5645 5647 5648 5647 5645 5641 5639 5637 5635 5633 5630 5625 5619 5613 5608
5600 5596 5598 5603 5602 5598 5598 5594 5593 5589 5591 5600 5615 5606 5633 5631 5637 5639 5631 5622 5617 5615 5613 5610 5610 5611 5613 5616 5620 5623 5626 5627 5627 5627 5626 5624 5623 5621 5620 5617 5614 5610 5605 5600
5592 5588 5587 5586 5587 5583 5583 5583 5578 5582 5587 5604 5598 5594 5617 5628 5624 5615 5606 5595 5589 5585 5584 5584 5586 5589 5590 5592 5595 5598 5602 5604 5605 5606 5606 5606 5605 5605 5604 5603 5602 5600 5597 5593
5578 5587 5584 5577 5582 5582 5573 5575 5563 5557 5574 5594 5579 5583 5606 5607 5599 5589 5580 5569 5562 5560 5558 5557 5558 5561 5563 5566 5569 5573 5576 5577 5579 5582 5584 5586 5586 5587 5587 5587 5587 5587 5586 5583
5563 5570 5570 5565 5564 5567 5559 5560 5564 5547 5542 5549 5579 5594 5591 5587 5578 5565 5554 5547 5540 5536 5533 5534 5535 5535 5537 5540 5543 5546 5549 5551 5554 5557 5560 5562 5565 5567 5569 5569 5569 5569 5570 5569
5544 5542 5552 5546 5545 5549 5550 5550 5533 5527 5526 5536 5564 5582 5590 5579 5564 5546 5534 5525 5518 5514 5512 5512 5512 5513 5514 5516 5518 5521 5524 5525 5527 5530 5534 5537 5540 5543 5546 5549 5550 5551 5552 5552
5522 5514 5528 5528 5537 5544 5531 5526 5526 5520 5517 5521 5532 5563 5571 5556 5540 5524 5509 5500 5495 5492 5492 5492 5492 5492 5492 5493 5496 5498 5499 5500 5503 5506 5509 5513 5515 5518 5522 5525 5528 5531 5533 5534
5511 5501 5507 5525 5540 5535 5531 5532 5527 5516 5517 5519 5521 5541 5536 5520 5506 5495 5484 5477 5472 5471 5472 5473 5473 5473 5473 5474 5474 5474 5475 5476 5478 5481 5484 5488 5491 5495 5498 5501 5504 5508 5512 5514
5499 5485 5491 5507 5519 5507 5502 5509 5510 5506 5502 5506 5507 5517 5493 5484 5474 5466 5461 5456 5453 5453 5453 5453 5452 5451 5451 5451 5451 5451 5451 5452 5454 5457 5461 5464 5467 5470 5473 5476 5480 5485 5489 5494
5482 5476 5477 5485 5499 5490 5479 5479 5476 5472 5479 5485 5489 5495 5486 5482 5467 5449 5440 5435 5432 5431 5430 5430 5429 5428 5427 5426 5426 5426 5426 5426 5428 5431 5434 5438 5440 5443 5446 5450 5455 5459 5465 5470
5455 5456 5465 5470 5476 5473 5467 5465 5468 5465 5464 5457 5464 5467 5477 5470 5441 5425 5419 5415 5412 5411 5410 5408 5405 5403 5402 5401 5400 5399 5399 5399 5399 5403 5407 5409 5412 5415 5419 5423 5428 5433 5439 5445
5424 5424 5427 5429 5447 5445 5438 5451 5458 5456 5455 5452 5451 5456 5444 5411 5405 5402 5400 5397 5395 5394 5391 5388 5385 5382 5379 5376 5374 5372 5371 5370 5370 5372 5376 5379 5382 5386 5390 5394 5399 5405 5412 5419
5400 5397 5394 5402 5415 5398 5405 5435 5441 5443 5447 5441 5433 5420 5382 5379 5380 5381 5379 5378 5377 5376 5372 5369 5366 5363 5359 5355 5350 5346 5344 5342 5341 5342 5344 5346 5350 5354 5359 5364 5369 5376 5383 5391
5380 5376 5365 5368 5354 5363 5415 5405 5405 5407 5410 5396 5375 5356 5353 5352 5357 5359 5355 5352 5354 5354 5352 5350 5346 5343 5339 5333 5327 5322 5319 5316 5314 5314 5314 5315 5317 5321 5325 5330 5336 5343 5351 5361
5366 5357 5345 5337 5340 5354 5370 5372 5365 5363 5367 5351 5340 5332 5329 5329 5332 5343 5339 5332 5332 5332 5330 5326 5323 5319 5316 5311 5303 5297 5295 5293 5291 5289 5288 5288 5286 5287 5290 5294 5301 5308 5316 5328
5339 5333 5323 5320 5315 5322 5350 5337 5332 5330 5328 5317 5311 5309 5310 5306 5308 5326 5325 5316 5313 5311 5307 5303 5300 5296 5292 5288 5279 5272 5272 5270 5267 5265 5263 5260 5257 5255 5256 5260 5266 5273 5280 5293
5307 5304 5304 5308 5305 5314 5322 5310 5308 5308 5311 5299 5297 5296 5295 5292 5292 5301 5302 5297 5294 5291 5288 5282 5277 5273 5270 5264 5255 5250 5249 5247 5243 5239 5237 5234 5231 5227 5227 5230 5237 5241 5249 5262
5299 5296 5282 5278 5283 5298 5297 5292 5294 5299 5298 5294 5290 5288 5284 5282 5283 5283 5283 5281 5278 5273 5268 5259 5250 5249 5247 5239 5229 5225 5225 5220 5214 5211 5208 5205 5202 5200 5201 5203 5210 5214 5220 5232
5288 5295 5287 5272 5290 5300 5286 5287 5292 5291 5287 5287 5283 5280 5275 5270 5269 5268 5266 5262 5255 5247 5238 5230 5223 5220 5220 5212 5200 5194 5193 5185 5180 5176 5174 5173 5174 5175 5176 5177 5184 5190 5197 5206
5291 5290 5276 5272 5286 5291 5287 5285 5284 5281 5277 5275 5271 5267 5262 5258 5254 5246 5239 5233 5226 5218 5210 5202 5195 5191 5190 5183 5171 5161 5155 5149 5143 5143 5146 5147 5148 5153 5155 5156 5160 5166 5175 5185
5288 5273 5266 5267 5281 5279 5283 5281 5276 5273 5267 5261 5254 5245 5239 5233 5226 5219 5212 5205 5199 5192 5183 5173 5165 5160 5157 5151 5143 5132 5123 5118 5116 5118 5121 5122 5124 5127 5131 5135 5139 5143 5153 5159
5288 5273 5262 5265 5276 5269 5274 5276 5268 5261 5255 5242 5231 5223 5213 5205 5200 5194 5187 5180 5172 5165 5156 5148 5141 5133 5128 5122 5116 5109 5101 5095 5094 5098 5100 5101 5103 5105 5108 5114 5123 5129 5133 5144